Regional Weather Roundup
Issued by NWS

Home | Current Version | Previous Version | Graphics & Text | Print | Product List | Glossary On
Versions: 1 2 3 4 5 6 7 8 9 10 11 12 13 14 15 16 17 18 19 20 21 22 23 24 25 26 27 28 29 30 31 32 33 34 35 36 37 38 39 40 41 42 43 44 45 46 47 48 49 50
000
ASUS43 KLSX 261207
RWRMO

WEATHER SUMMARY FOR MISSOURI
NATIONAL WEATHER SERVICE SPRINGFIELD MO
600 AM CST WED NOV 26 2014

NOTE: "FAIR" INDICATES FEW OR NO CLOUDS BELOW 12,000 FEET WITH NO
       SIGNIFICANT WEATHER AND/OR OBSTRUCTIONS TO VISIBILITY.
       CURRENT SKY AND/OR WEATHER CONDITIONS ARE NOT AVAILABLE FOR
       CHILLICOTHE AND FARMINGTON.

MOZ001>031-035>038-043-044-053-054-261300-
...NORTHERN AND WESTERN MISSOURI...

CITY           SKY/WX    TMP DP  RH WIND       PRES   REMARKS
KANSAS CTY INT CLOUDY    36  34  92 SW8       29.92R WCI  30
6HR MIN TEMP:  34; 6HR MAX TEMP:  39; 6HR PCP:  0.05;

KANSAS C DTWN  CLOUDY    37  34  89 SW6       29.93F
6HR MIN TEMP:  35; 6HR MAX TEMP:  41; 6HR PCP:  0.04;

LEE`S SUMMIT   CLOUDY    35  32  88 SW9       29.93F WCI  28
6HR MIN TEMP:  33; 6HR MAX TEMP:  38; 6HR PCP:  0.05;

ST JOSEPH      CLOUDY    38  33  82 W9        29.90S
6HR MIN TEMP:  35; 6HR MAX TEMP:  39; 6HR PCP:  0.01;

CHILLICOTHE      N/A     34  32  92 S9        29.92F WCI  27
6HR MIN TEMP:  32; 6HR MAX TEMP:  35; 6HR PCP:  0.10;

KIRKSVILLE     CLOUDY    31  24  75 S8        29.94F WCI  23
6HR MIN TEMP:  27; 6HR MAX TEMP:  31;


$$
MOZ066>068-077>081-088>096-101>105-261300-
...SOUTHWEST MISSOURI...

CITY           SKY/WX    TMP DP  RH WIND       PRES   REMARKS
SPRINGFIELD    CLOUDY    36  23  59 SE14      29.94F WCI  27
6HR MIN TEMP:  30; 6HR MAX TEMP:  36;

JOPLIN         CLOUDY    42  24  49 SW8       29.96R
6HR MIN TEMP:  35; 6HR MAX TEMP:  42;


$$
MOZ032>034-039>042-045>050-055>058-069>072-261300-
...CENTRAL MISSOURI...

CITY           SKY/WX    TMP DP  RH WIND       PRES   REMARKS
COLUMBIA       CLOUDY    31  22  69 SE12      29.97F WCI  22
6HR MIN TEMP:  26; 6HR MAX TEMP:  31;

JEFFERSON CITY CLOUDY    30  22  72 E9        30.01F WCI  22
6HR MIN TEMP:  22; 6HR MAX TEMP:  30;

ROLLA          CLOUDY    33  20  58 S9        30.00R WCI  25
6HR MIN TEMP:  25; 6HR MAX TEMP:  34;

SEDALIA        LGT RAIN  37  27  67 SW8       29.97S
6HR MIN TEMP:  31; 6HR MAX TEMP:  38; 6HR PCP: TRACE;

WHITEMAN AFB   LGT SNOW  34  30  86 SW9       29.95F WCI  27
WARRENSBURG    LGT SNOW  32  32 100 S8        29.96F WCI  25
OSAGE BEACH    CLOUDY    34  19  55 SE8       29.98F WCI  27

$$
MOZ051-052-059>065-261300-
...EAST CENTRAL MISSOURI...

CITY           SKY/WX    TMP DP  RH WIND       PRES   REMARKS
ST LOUIS INTL  MOCLDY    30  25  81 SE9       30.08S WCI  22
6HR MIN TEMP:  27; 6HR MAX TEMP:  31;

SPIRIT OF STL  MOCLDY    29  24  82 CALM      30.07R
6HR MIN TEMP:  22; 6HR MAX TEMP:  30;

ST CHARLES     PTCLDY    28  26  92 E10       30.08S WCI  19
6HR MIN TEMP:  27; 6HR MAX TEMP:  29;


$$
MOZ072>076-082>087-097>100-106>115-261300-
...SOUTH CENTRAL AND SOUTHEAST MISSOURI...

CITY           SKY/WX    TMP DP  RH WIND       PRES   REMARKS
CAPE GIRARDEAU MOCLDY    28  26  92 CALM      30.13R
6HR MIN TEMP:  23; 6HR MAX TEMP:  29;

FARMINGTON     FAIR      25  23  93 SE3       30.07S
6HR MIN TEMP:  21; 6HR MAX TEMP:  27;

POPLAR BLUFF   PTCLDY    26  22  84 CALM      30.10S
6HR MIN TEMP:  24; 6HR MAX TEMP:  27;

WEST PLAINS    MOCLDY    32  20  61 S5        30.02F WCI  27
6HR MIN TEMP:  23; 6HR MAX TEMP:  33;


$$



USA.gov is the U.S. government's official web portal to all federal, state and local government web resources and services.